| time (UTC) | temp C | wind direction | speed KPH | gust KPH | rain 1hr cm | rain 24hr cm | rain mn cm | humidity % | barometer mb |
| 20260503201532 | 16 | 19 | 4.8 | 9.7 | 0.00 | 0.00 | 0.00 | 98 | 1014.3 |
| 20260503200521 | 16 | 2 | 4.8 | 9.7 | 0.00 | 0.00 | 0.00 | 98 | 1014.4 |
| 20260503195537 | 16 | 15 | 3.2 | 8.0 | 0.00 | 0.00 | 0.00 | 98 | 1014.4 |
| 20260503194533 | 16 | 1 | 3.2 | 8.0 | 0.00 | 0.00 | 0.00 | 98 | 1014.4 |
| 20260503193529 | 16 | 30 | 1.6 | 4.8 | 0.00 | 0.00 | 0.00 | 98 | 1014.4 |
| 20260503192518 | 16 | 4 | 3.2 | 8.0 | 0.00 | 0.00 | 0.00 | 98 | 1014.4 |
| 20260503191527 | 16 | 330 | 3.2 | 6.4 | 0.00 | 0.00 | 0.00 | 98 | 1014.6 |
| 20260503190537 | 16 | 354 | 1.6 | 6.4 | 0.00 | 0.00 | 0.00 | 98 | 1014.6 |
| 20260503185539 | 16 | 1 | 3.2 | 8.0 | 0.00 | 0.00 | 0.00 | 98 | 1014.8 |
| 20260503184534 | 16 | 9 | 3.2 | 6.4 | 0.00 | 0.00 | 0.00 | 98 | 1014.8 |
| 20260503183529 | 16 | 350 | 1.6 | 4.8 | 0.00 | 0.00 | 0.00 | 98 | 1014.8 |
| 20260503182537 | 16 | 333 | 1.6 | 9.7 | 0.00 | 0.00 | 0.00 | 98 | 1015.1 |
| 20260503181519 | 16 | 351 | 3.2 | 9.7 | 0.00 | 0.00 | 0.00 | 98 | 1015.0 |
| 20260503180529 | 16 | 318 | 3.2 | 8.0 | 0.00 | 0.00 | 0.00 | 98 | 1015.1 |
| 20260503175517 | 16 | 343 | 3.2 | 9.7 | 0.00 | 0.00 | 0.00 | 98 | 1015.2 |
| 20260503174526 | 16 | 342 | 4.8 | 11.3 | 0.00 | 0.00 | 0.00 | 98 | 1015.2 |
| 20260503173535 | 16 | 0 | 3.2 | 9.7 | 0.00 | 0.00 | 0.00 | 98 | 1015.2 |
| 20260503172523 | 16 | 17 | 4.8 | 9.7 | 0.00 | 0.00 | 0.00 | 98 | 1015.1 |
| 20260503171532 | 16 | 12 | 4.8 | 9.7 | 0.00 | 0.00 | 0.00 | 98 | 1015.1 |
| 20260503170521 | 16 | 360 | 6.4 | 11.3 | 0.00 | 0.00 | 0.00 | 98 | 1015.5 |
| 20260503150527 | 16 | 346 | 6.4 | 16.1 | 0.00 | 0.00 | 0.00 | 97 | 1016.7 |
| 20260503130535 | 17 | 41 | 1.6 | 6.4 | 0.00 | 0.00 | 0.00 | 96 | 1017.3 |
| 20260503110527 | 17 | 98 | 3.2 | 6.4 | 0.00 | 0.00 | 0.00 | 95 | 1017.4 |
| 20260503081532 | 18 | 335 | 8.0 | 17.7 | 0.00 | 0.00 | 0.00 | 90 | 1018.0 |
| 20260503080521 | 18 | 293 | 6.4 | 12.9 | 0.00 | 0.00 | 0.00 | 89 | 1017.8 |
| 20260503072516 | 18 | 358 | 1.6 | 3.2 | 0.00 | 0.00 | 0.00 | 90 | 1017.2 |
| 20260503071532 | 18 | 18 | 3.2 | 4.8 | 0.00 | 0.00 | 0.00 | 90 | 1017.3 |
| 20260503070536 | 18 | 324 | 6.4 | 11.3 | 0.00 | 0.00 | 0.00 | 89 | 1017.4 |
| 20260503054526 | 21 | 169 | 3.2 | 6.4 | 0.00 | 0.00 | 0.00 | 72 | 1017.5 |
| 20260503053536 | 21 | 204 | 3.2 | 4.8 | 0.00 | 0.00 | 0.00 | 67 | 1017.5 |
| 20260503052524 | 21 | 28 | 1.6 | 3.2 | 0.00 | 0.00 | 0.00 | 68 | 1017.5 |
| 20260503051532 | 21 | 208 | 1.6 | 3.2 | 0.00 | 0.00 | 0.00 | 67 | 1017.6 |
| 20260503050522 | 21 | 256 | 1.6 | 3.2 | 0.00 | 0.00 | 0.00 | 65 | 1017.8 |
| 20260503045530 | 22 | 213 | 3.2 | 6.4 | 0.00 | 0.00 | 0.00 | 65 | 1017.8 |
| 20260503044520 | 21 | 316 | 6.4 | 11.3 | 0.00 | 0.00 | 0.00 | 67 | 1018.0 |
| 20260503043528 | 21 | 360 | 3.2 | 6.4 | 0.00 | 0.00 | 0.00 | 71 | 1018.0 |
| 20260503042538 | 20 | 353 | 3.2 | 6.4 | 0.00 | 0.00 | 0.00 | 74 | 1017.9 |
| 20260503041525 | 21 | 342 | 6.4 | 12.9 | 0.00 | 0.00 | 0.00 | 70 | 1018.0 |
| 20260503040535 | 21 | 339 | 8.0 | 12.9 | 0.00 | 0.00 | 0.00 | 64 | 1018.1 |
| 20260503035523 | 22 | 327 | 9.7 | 16.1 | 0.00 | 0.00 | 0.00 | 62 | 1018.1 |
| 20260503034532 | 22 | 337 | 11.3 | 19.3 | 0.00 | 0.00 | 0.00 | 61 | 1018.2 |
| 20260503033521 | 22 | 319 | 11.3 | 22.5 | 0.00 | 0.00 | 0.00 | 59 | 1018.2 |
| 20260503032529 | 21 | 328 | 3.2 | 9.7 | 0.00 | 0.00 | 0.00 | 64 | 1018.5 |
| 20260503031518 | 21 | 341 | 8.0 | 14.5 | 0.00 | 0.00 | 0.00 | 63 | 1018.7 |
| 20260503030528 | 21 | 337 | 4.8 | 12.9 | 0.00 | 0.00 | 0.00 | 65 | 1018.8 |
| 20260503025534 | 20 | 323 | 4.8 | 9.7 | 0.00 | 0.00 | 0.00 | 69 | 1019.0 |
| 20260503024521 | 20 | 206 | 4.8 | 9.7 | 0.00 | 0.00 | 0.00 | 70 | 1019.1 |
| 20260503023537 | 20 | 271 | 1.6 | 4.8 | 0.00 | 0.00 | 0.00 | 70 | 1019.2 |
| 20260503022531 | 19 | 211 | 3.2 | 6.4 | 0.00 | 0.00 | 0.00 | 71 | 1019.5 |
| 20260503021526 | 20 | 247 | 3.2 | 6.4 | 0.00 | 0.00 | 0.00 | 72 | 1019.8 |
| 20260503020542 | 18 | 146 | 3.2 | 6.4 | 0.00 | 0.00 | 0.00 | 73 | 1019.9 |
| 20260503015524 | 19 | 191 | 1.6 | 3.2 | 0.00 | 0.00 | 0.00 | 73 | 1020.4 |
| 20260503014534 | 18 | 260 | 3.2 | 8.0 | 0.00 | 0.00 | 0.00 | 76 | 1020.5 |
| 20260503013522 | 18 | 207 | 3.2 | 8.0 | 0.00 | 0.00 | 0.00 | 79 | 1020.6 |
| 20260503012532 | 17 | 191 | 3.2 | 8.0 | 0.00 | 0.00 | 0.00 | 80 | 1020.5 |
| 20260503011527 | 17 | 165 | 3.2 | 6.4 | 0.00 | 0.00 | 0.00 | 84 | 1020.8 |
| 20260503010531 | 17 | 160 | 4.8 | 11.3 | 0.00 | 0.00 | 0.00 | 87 | 1020.9 |
| 20260503005519 | 16 | 184 | 8.0 | 11.3 | 0.00 | 0.00 | 0.00 | 89 | 1021.1 |
| 20260503004527 | 16 | 200 | 8.0 | 11.3 | 0.00 | 0.00 | 0.00 | 90 | 1021.2 |
| 20260503003523 | 16 | 187 | 8.0 | 11.3 | 0.00 | 0.00 | 0.00 | 92 | 1021.3 |
| 20260503002525 | 16 | 182 | 8.0 | 9.7 | 0.00 | 0.00 | 0.00 | 91 | 1021.3 |
| 20260503001535 | 16 | 189 | 4.8 | 8.0 | 0.00 | 0.00 | 0.00 | 92 | 1021.4 |
| 20260503000524 | 16 | 184 | 6.4 | 8.0 | 0.00 | 0.00 | 0.00 | 91 | 1021.4 |
| 20260502235532 | 16 | 178 | 4.8 | 6.4 | 0.00 | 0.00 | 0.00 | 90 | 1021.6 |
| 20260502234521 | 16 | 169 | 4.8 | 9.7 | 0.00 | 0.00 | 0.00 | 90 | 1021.6 |
| 20260502233530 | 16 | 169 | 3.2 | 8.0 | 0.00 | 0.00 | 0.00 | 91 | 1021.6 |
| 20260502232519 | 15 | 160 | 4.8 | 9.7 | 0.00 | 0.00 | 0.00 | 94 | 1021.5 |
| 20260502231529 | 15 | 161 | 3.2 | 6.4 | 0.00 | 0.00 | 0.00 | 94 | 1021.6 |
| 20260502230517 | 15 | 187 | 4.8 | 8.0 | 0.00 | 0.00 | 0.00 | 94 | 1021.7 |
| 20260502225525 | 15 | 183 | 3.2 | 9.7 | 0.00 | 0.00 | 0.00 | 94 | 1021.6 |
| 20260502224535 | 15 | 186 | 4.8 | 8.0 | 0.00 | 0.00 | 0.00 | 94 | 1021.6 |
| 20260502223523 | 15 | 165 | 6.4 | 8.0 | 0.00 | 0.00 | 0.00 | 94 | 1021.6 |
| 20260502222533 | 14 | 169 | 4.8 | 8.0 | 0.00 | 0.00 | 0.00 | 95 | 1021.5 |
| 20260502221522 | 14 | 190 | 6.4 | 11.3 | 0.00 | 0.00 | 0.00 | 96 | 1021.6 |
| 20260502220530 | 14 | 198 | 4.8 | 8.0 | 0.00 | 0.00 | 0.00 | 96 | 1021.2 |
| 20260502215526 | 14 | 224 | 3.2 | 6.4 | 0.00 | 0.00 | 0.00 | 95 | 1021.2 |
| 20260502214528 | 14 | 183 | 3.2 | 4.8 | 0.00 | 0.00 | 0.00 | 95 | 1020.9 |
| 20260502213517 | 13 | 124 | 1.6 | 4.8 | 0.00 | 0.00 | 0.00 | 95 | 1020.9 |
| 20260502212526 | 13 | 133 | 4.8 | 6.4 | 0.00 | 0.00 | 0.00 | 95 | 1020.8 |
| 20260502211542 | 13 | 163 | 6.4 | 9.7 | 0.00 | 0.00 | 0.00 | 95 | 1020.9 |
| 20260502210523 | 13 | 176 | 1.6 | 8.0 | 0.00 | 0.00 | 0.00 | 95 | 1021.0 |
| 20260502205533 | 13 | 195 | 3.2 | 6.4 | 0.00 | 0.00 | 0.00 | 96 | 1020.9 |
| 20260502204520 | 13 | 178 | 1.6 | 4.8 | 0.00 | 0.00 | 0.00 | 96 | 1020.5 |
| 20260502203529 | 13 | 158 | 3.2 | 6.4 | 0.00 | 0.00 | 0.00 | 96 | 1020.4 |
| 20260502202524 | 13 | 166 | 3.2 | 4.8 | 0.00 | 0.00 | 0.00 | 96 | 1020.4 |